• Join FlightAware (Why Join?)
  • Login
  • US Flag 
04:49PM EDT


 

Airport Tracker/Info


-or-


 

Live Flight TrackerFlight Track Log ✈ N789EX ✈ 31-Oct-2013 ✈ KMWH - KPAE

Flight Track Log - Related Links

Times and Time Zones

All times are in EDT time to prevent confusion due to time zone crossing. See the N789EX flight status page for this flight to view local times or setup timezone preferences in your user account.

Time Position Orientation Groundspeed Altitude Reporting Facility
EDT Latitude Longitude Course Direction KTS MPH feet Rate Location/Type
05:22PM 47.4190 -119.8810 296° West 331 381 20,000  Level FlightAware
05:23PM 47.3671 -119.9575 296° West  Level Estimated
05:23PM 47.4460 -119.9600 297° West 333 383 20,000  Level FlightAware
05:23PM 47.4670 -120.0210 297° West 331 381 20,000  Level FlightAware
05:25PM 47.5160 -120.1670 296° West 334 384 20,000  Level FlightAware
05:25PM 47.5540 -120.2800 297° West 330 380 20,000  Level FlightAware
05:26PM 47.5900 -120.3870 297° West 333 383 20,000  Level FlightAware
05:27PM 47.6010 -120.4200 296° West 333 383 20,000  Level FlightAware
05:27PM 47.6290 -120.5060 296° West 330 380 20,000  Level FlightAware
05:28PM 47.6530 -120.5780 296° West 330 380 20,000  Level FlightAware
05:29PM 47.6760 -120.6470 296° West 329 379 20,000 -180 Level FlightAware
05:30PM 47.7170 -120.7720 296° West 321 369 19,800 -480 Descending FlightAware
05:31PM 47.7610 -120.9060 296° West 296 341 19,000 -840 Descending FlightAware
05:32PM 47.7940 -121.0070 296° West 291 335 18,100 -1,020 Descending FlightAware
05:32PM 47.8140 -121.0690 296° West 288 331 17,500 -1,080 Descending FlightAware
05:33PM 47.8450 -121.1640 296° West 288 331 16,600 -1,080 Descending FlightAware
05:34PM 47.8600 -121.2160 293° West 287 330 16,100 -1,260 Descending FlightAware
05:34PM 47.8810 -121.2890 293° West 293 337 15,200 -1,200 Descending FlightAware
05:35PM 47.9020 -121.3650 292° West 293 337 14,500 -1,020 Descending FlightAware
05:36PM 47.9320 -121.4750 292° West 292 336 13,500 -1,020 Descending FlightAware
05:36PM 47.9470 -121.5290 293° West 292 336 13,000 -1,920 Descending FlightAware
05:37PM 47.9760 -121.6350 292° West 297 342 10,800 -1,740 Descending FlightAware
05:38PM 48.0010 -121.7270 292° West 265 305 10,000 -1,080 Descending FlightAware
05:39PM 48.0140 -121.7770 291° West 251 289 9,400 -1,860 Descending FlightAware
05:39PM 48.0310 -121.8380 293° West 257 296 7,900 -1,560 Descending FlightAware
05:40PM 48.0430 -121.8820 292° West 243 280 7,700 -300 Descending FlightAware
05:40PM 48.0510 -121.9130 291° West 232 267 7,700 -120 Level FlightAware
05:41PM 48.0630 -121.9600 291° West 223 257 7,600 -660 Descending FlightAware
05:41PM 48.0770 -122.0110 292° West 221 254 7,000 -1,080 Descending FlightAware
05:42PM 48.0890 -122.0560 292° West 204 235 6,400 -1,500 Descending FlightAware
05:42PM 48.0990 -122.0930 292° West 200 230 5,500 -1,320 Descending FlightAware
05:43PM 48.1110 -122.1360 293° West 170 196 5,000 -780 Descending FlightAware
05:43PM 48.1180 -122.1650 290° West 161 185 4,700 -720 Descending FlightAware
05:44PM 48.1230 -122.1820 294° West 158 182 4,500 -840 Descending FlightAware
05:44PM 48.1310 -122.2110 292° West 158 182 4,100 -840 Descending FlightAware
05:44PM 48.1330 -122.2330 278° West 145 167 3,800 -480 Descending FlightAware
05:45PM 48.1310 -122.2660 265° West 141 162 3,700 -420 Descending FlightAware
05:45PM 48.1210 -122.2810 225° Southwest 145 167 3,400 -1,020 Descending FlightAware
05:46PM 48.1000 -122.2900 196° South 151 174 2,800 -660 Descending FlightAware
05:47PM 48.0740 -122.2890 179° South 147 169 2,700 -120 Descending FlightAware
05:47PM 48.0650 -122.2890 180° South 146 168 2,700  Level FlightAware
05:47PM 48.0480 -122.2890 180° South 148 170 2,700 -300 Level FlightAware
05:48PM 48.0310 -122.2880 178° South 147 169 2,500 -660 Descending FlightAware
05:48PM 48.0100 -122.2880 180° South 140 161 2,100 -780 Descending FlightAware
05:49PM 47.9840 -122.2870 179° South 134 154 1,600 -780 Descending FlightAware
05:49PM 47.9600 -122.2870 180° South 134 154 1,100 -780 Descending FlightAware
05:50PM 47.9440 -122.2860 178° South 135 155 800 -780 Descending FlightAware
05:50PM 47.9260 -122.2860 180° South 138 159 400 -480 Descending FlightAware
05:51PM 47.9120 -122.2860 180° South 138 159 400  Level FlightAware
05:58PM 47.9070 -122.2816 180° South  Level Estimated
05:59PM 47.9070 -122.2816 180° South  Level Estimated